Regional Weather Roundup
Issued by NWS San Diego, CA

Home | Current Version | Previous Version | Text Only | Print | Product List | Glossary On
Versions: 1 2 3 4 5 6 7 8 9 10 11 12 13 14 15 16 17 18 19 20 21 22 23 24 25 26 27 28 29 30 31 32 33 34 35 36 37 38 39 40 41 42 43 44 45 46 47 48 49 50
000
ASUS46 KSGX 290711
RWRSGX

SAN DIEGO HOURLY WEATHER ROUNDUP
NATIONAL WEATHER SERVICE SAN DIEGO CA
1200 AM PDT SAT AUG 29 2015

NOTE: "FAIR" INDICATES FEW OR NO CLOUDS BELOW 12,000 FEET WITH NO
SIGNIFICANT WEATHER AND/OR OBSTRUCTIONS TO VISIBILITY.

CAZ042-043-060-061-PZZ750-775-290800-

GREATER SAN DIEGO AREA

CITY           SKY/WX    TMP DP  RH WIND       PRES   REMARKS
LINDBERGH FLD  PTCLDY    76  70  82 S6        29.89S
POINT LOMA       N/A     72  69  89 SW6         N/A
NATIONAL CITY    N/A     74  71  88 CALM      29.89S
CHULA VISTA      N/A     74  71  93 CALM      29.81S
IMPERIAL BEACH CLOUDY   N/A N/A N/A W7        29.88S
BROWN FIELD    CLEAR     72  70  93 CALM      29.89S
MIRAMAR MCAS   CLEAR     74  67  78 SE3       29.89S
MONTGOMERY FLD CLEAR     75  70  84 S3        29.89F

$$

NORTH SAN DIEGO COUNTY

CITY           SKY/WX    TMP DP  RH WIND       PRES   REMARKS
CAMP PENDLETON CLEAR     72  65  78 NE3       29.87S
OCEANSIDE AP   CLEAR     71  66  84 CALM      29.87R
OCEANSIDE HBR    N/A     75  73  94 CALM      29.90R
VISTA            N/A     72  64  76 CALM      29.86R
CARLSBAD       MOCLDY    74  72  93 CALM      29.88R
FALLBROOK        N/A     73  66  80 CALM      29.87R
ESCONDIDO        N/A     77  61  56 CALM      29.88F
SAN MARCOS       N/A     74  62  65 CALM      29.85R
POWAY            N/A     73  60  61 CALM      29.87S

$$

EAST SAN DIEGO COUNTY

CITY           SKY/WX    TMP DP  RH WIND       PRES   REMARKS
RAMONA         CLEAR     71  50  47 CALM      29.93S
SANTEE LAKES     N/A     73  58  59 CALM      29.86S
LA MESA          N/A     73  70  91 CALM      29.80F
JAMUL            N/A     73  68  85 CALM      29.86S
DESCANSO N       N/A     70  46  42 E3        29.73F
CAMPO            N/A     69  47  45 NE5       29.97S

$$

ORANGE COUNTY AND THE LOS ANGELES BASIN

CITY           SKY/WX    TMP DP  RH WIND       PRES   REMARKS
JOHN WAYNE AP  CLEAR     76  61  59 S3        29.86S
LAGUNA BEACH     N/A    N/A N/A N/A NW2       29.82S
LAKE FOREST FR   N/A     75  55  49 CALM      29.75R
SANTA ANA        N/A     78  67  69 CALM      29.81S
HUNTINGTON BCH   N/A     73  69  88 CALM      29.88S
LOS ALAMITOS   FAIR      74  68  83 SE3       29.85F
FULLERTON      CLEAR     79  65  62 SE5       29.85S
LONG BEACH     CLEAR     75  68  78 SE5       29.85F
L.A. AP        CLEAR     74  66  76 SW3       29.86S
L.A. DOWNTOWN  CLEAR     75  64  68 CALM      29.85F

$$

THE INLAND EMPIRE

CITY           SKY/WX    TMP DP  RH WIND       PRES   REMARKS
CORONA         CLEAR     75  59  57 SW3       29.88S
CHINO          CLEAR     77  58  51 W5        29.89S
ONTARIO        CLEAR     82  52  35 CALM      29.89S
RIVERSIDE AP   CLEAR     82  54  37 CALM      29.89S
MORENO VALLEY    N/A     79  54  41 CALM      29.89F
MARCH ARB      CLEAR     78  51  38 CALM      29.92S
HORSETHIEF CYN   N/A     78  43  28 S3        29.88S
PERRIS           N/A     81  51  35 S3        29.92R
MENIFEE          N/A     81  54  39 CALM      29.96R
HEMET EAST       N/A     78  43  28 CALM      29.88R
FRENCH VALLEY  FAIR      77  45  31 CALM      29.93S
TEMECULA         N/A     78  52  40 SE3       29.87S

$$

SAN BERNARDINO AND RIVERSIDE COUNTY MOUNTAINS

CITY           SKY/WX    TMP DP  RH WIND       PRES   REMARKS
BIG BEAR AP    CLEAR     59  43  55 CALM      30.30S
PINE COVE        N/A     67  47  47 N3        29.85S

$$

SOUTHERN DESERT INCLUDING THE COACHELLA VALLEY

CITY           SKY/WX    TMP DP  RH WIND       PRES   REMARKS
PALM SPRINGS   CLEAR    100  48  17 NW7       29.77F HX  96
THOUSAND PALMS   N/A     96  50  20 NW9       29.73S
PALM DESERT      N/A     94  54  25 CALM        N/A
THERMAL        CLEAR     98  46  17 NW10      29.70S
BLYTHE         CLEAR     99  59  26 W12       29.74S HX  99
IMPERIAL AP    CLEAR     93  54  26 W7        29.72S
EL CENTRO NAS  CLEAR     94  50  22 SW8       29.74S
YUMA AZ        CLEAR     98  66  34 CALM      29.75R HX 101

$$

UPPER DESERT

CITY           SKY/WX    TMP DP  RH WIND       PRES   REMARKS
VICTORVILLE AP CLEAR     81  45  28 CALM      30.00S
HESPERIA         N/A     79  51  37 CALM      29.93R
APPLE VALLEY     N/A     78  48  34 CALM      30.04S
PALMDALE       CLEAR     80  45  28 S7        29.98S
LANCASTER      CLEAR     82  46  28 W12       29.96S
EDWARDS AFB    CLEAR     79  42  26 SW8       29.92S
DAGGETT        CLEAR     90  44  20 W9        29.90R
29 PALMS N     CLEAR     89  49  25 SW9       29.96S
NEEDLES        CLEAR    100  51  19 W12       29.77S HX  97

$$

REGIONAL REPORTS

CITY           SKY/WX    TMP DP  RH WIND       PRES   REMARKS
SANTA BARBARA  CLEAR     72  67  84 E5        29.82S
SANDBERG       CLEAR     77  42  28 N14       30.14F
LAS VEGAS NV   PTCLDY    93  52  24 SW5       29.83S
PHOENIX AZ     PTCLDY    96  61  31 CALM      29.79S HX  96
TIJUANA        CLEAR     73  66  78 N6        29.91S
ENSENADA NW      N/A     73  32  22 NW6       29.85S

$$

OFFSHORE ISLANDS

CITY           SKY/WX    TMP DP  RH WIND       PRES   REMARKS
CATALINA ARPT  CLEAR     82  47  29 W5        29.94F
SAN NICOLAS IS CLEAR    N/A N/A N/A W25G32    29.88R

$$

MARINE AND OFFSHORE BUOY REPORTS

STATION/POSITION SKY/WX   TEMP    WIND        PRES    SWELL
                          AIR SEA DIR/SP/G            HT/PER/DIR
                          (F)     (DEG/KT/KT) (MB)    (FT/S/D)
TANNER BANKS               69 70  310/ 17/ 21 1011.8R   3/230/15
S CLEMENTE BASIN           71 72  240/  6/  6 1011.5S   3/180/15
SO. S. ROSA ISLA           65 67  310/ 19/ 23 1010.7R   3/15
W. S. BARBARA CH           65 66  310/ 19/ 21 1010.9R   3/270/16
M. S. BARBARA CH           73 71  260/ 16/ 19 1010.0F
S. MONICA BASIN            73 74  290/  4/  4 1010.7R   3/210/15
S PEDRO CHANNEL               73                N/A     2/250/15
DANA POINT                    76                N/A     2/200/14
OCEANSIDE OFFSHR              76                N/A     3/200/14
TORREY PINES OTR              76                N/A     2/210/14
MISSION BAY BUOY              76                N/A     2/220/13
POINT LOMA SOUTH              74                N/A     3/190/14

$$



USA.gov is the U.S. government's official web portal to all federal, state and local government web resources and services.